AZA335 LIRF-LPPT

Flight info

Callsign AZA335
Flight time N/A
Altitude 31000
Route ESINO DCT ABIDU DCT EPIKU/N0496F320 DCT GINOX DCT KIFMI DCT ELVOP DCT MUREN/N0499F310 M601 BCN DCT ANTON DCT XIKEN DCT OSLAP DCT SALAS DCT RAMON DCT NEXAS DCT DISVU DCT ADUXO N975 PALIO DCT AKOKI DCT GOTOR DCT TLD DCT NATPA DCT MELON DCT CCS DCT ELVAR DCT UPULO
Aircraft B742/H-SDFHIRUWXY/L

Departure

Time 2026-05-05 17:46
Airport Rome–Fiumicino Leonardo da Vinci International Airport (LIRF)

Arrival

Time N/A
Airport Lisbon Humberto Delgado Airport (LPPT)
Time Latitude Longitude Altitude Speed Heading
2026-05-05 17:03 41.80440 12.27119 26 ft 0 kts 160°
2026-05-05 17:34 41.80445 12.27117 25 ft 2 kts 160°
2026-05-05 17:34 41.80460 12.27110 25 ft 2 kts 160°
2026-05-05 17:35 41.80474 12.27103 25 ft 2 kts 160°
2026-05-05 17:35 41.80488 12.27096 25 ft 2 kts 160°
2026-05-05 17:35 41.80502 12.27089 25 ft 2 kts 160°
2026-05-05 17:35 41.80516 12.27082 25 ft 2 kts 160°
2026-05-05 17:36 41.80525 12.27078 25 ft 2 kts 159°
2026-05-05 17:36 41.80538 12.27070 25 ft 2 kts 148°
2026-05-05 17:36 41.80550 12.27058 25 ft 2 kts 138°
2026-05-05 17:36 41.80561 12.27044 25 ft 2 kts 129°
2026-05-05 17:37 41.80570 12.27027 25 ft 2 kts 119°
2026-05-05 17:37 41.80576 12.27009 25 ft 2 kts 110°
2026-05-05 17:37 41.80580 12.26990 25 ft 2 kts 100°
2026-05-05 17:37 41.80582 12.26970 25 ft 2 kts 91°
2026-05-05 17:38 41.80581 12.26950 25 ft 2 kts 81°
2026-05-05 17:38 41.80578 12.26932 25 ft 1 kts 72°
2026-05-05 17:38 41.80577 12.26927 25 ft 0 kts 70°
2026-05-05 17:41 41.80584 12.26952 25 ft 5 kts 70°
2026-05-05 17:41 41.80605 12.27015 25 ft 8 kts 47°
2026-05-05 17:41 41.80668 12.27052 25 ft 11 kts
2026-05-05 17:41 41.80761 12.27062 25 ft 14 kts 356°
2026-05-05 17:42 41.80849 12.27031 25 ft 8 kts 339°
2026-05-05 17:42 41.80855 12.27029 25 ft 0 kts 339°
2026-05-05 17:43 41.80858 12.27027 25 ft 2 kts 339°
2026-05-05 17:43 41.80893 12.27009 25 ft 8 kts 338°
2026-05-05 17:43 41.80950 12.26954 25 ft 11 kts 290°
2026-05-05 17:44 41.80940 12.26857 25 ft 0 kts 250°
2026-05-05 17:45 41.80940 12.26856 25 ft 1 kts 250°
2026-05-05 17:45 41.80853 12.26539 25 ft 71 kts 250°
2026-05-05 17:45 41.80600 12.25633 25 ft 134 kts 250°
2026-05-05 17:45 41.80213 12.24221 73 ft 181 kts 248°
2026-05-05 17:46 41.79805 12.22577 507 ft 191 kts 250°
2026-05-05 17:46 41.79428 12.20826 1043 ft 201 kts 251°
2026-05-05 17:46 41.79183 12.19007 1767 ft 202 kts 263°
2026-05-05 17:46 41.79204 12.17130 2452 ft 204 kts 266°
2026-05-05 17:47 41.79084 12.15253 3065 ft 204 kts 252°
2026-05-05 17:47 41.78469 12.13635 3490 ft 197 kts 220°
2026-05-05 17:47 41.77265 12.12692 3669 ft 208 kts 202°
2026-05-05 17:47 41.75904 12.11811 3797 ft 227 kts 213°
2026-05-05 17:48 41.74802 12.10195 3922 ft 246 kts 237°
2026-05-05 17:48 41.73808 12.08284 3970 ft 250 kts 223°
2026-05-05 17:48 41.72538 12.06721 4005 ft 247 kts 220°
2026-05-05 17:48 41.71134 12.05463 4377 ft 244 kts 202°
2026-05-05 17:49 41.69506 12.04822 4821 ft 245 kts 190°
2026-05-05 17:49 41.67810 12.04544 5308 ft 247 kts 185°
2026-05-05 17:49 41.66078 12.04434 5778 ft 252 kts 181°
2026-05-05 17:49 41.64317 12.04420 6251 ft 255 kts 184°
2026-05-05 17:50 41.62585 12.03948 6760 ft 256 kts 202°
2026-05-05 17:50 41.61000 12.02892 7304 ft 257 kts 212°
2026-05-05 17:50 41.59514 12.01561 7841 ft 258 kts 217°
2026-05-05 17:50 41.58079 12.00126 8366 ft 260 kts 219°
2026-05-05 17:51 41.56652 11.98644 8902 ft 261 kts 219°
2026-05-05 17:51 41.55202 11.97118 9280 ft 268 kts 220°
2026-05-05 17:51 41.53739 11.95573 9653 ft 270 kts 220°
2026-05-05 17:51 41.52255 11.94006 9887 ft 272 kts 220°
2026-05-05 17:52 41.50734 11.92399 9963 ft 286 kts 220°
2026-05-05 17:52 41.49138 11.90713 9998 ft 303 kts 220°
2026-05-05 17:52 41.47426 11.88908 10106 ft 324 kts 220°
2026-05-05 17:52 41.45599 11.86984 10222 ft 346 kts 220°
2026-05-05 17:53 41.43658 11.84940 10335 ft 365 kts 220°
2026-05-05 17:53 41.41633 11.82811 10449 ft 374 kts 220°
2026-05-05 17:53 41.39756 11.80449 10560 ft 372 kts 232°
2026-05-05 17:53 41.38339 11.77596 10957 ft 370 kts 242°
2026-05-05 17:54 41.37225 11.74501 11519 ft 372 kts 247°
2026-05-05 17:54 41.36259 11.71295 12088 ft 375 kts 250°
2026-05-05 17:54 41.35349 11.68029 12652 ft 379 kts 250°
2026-05-05 17:54 41.34454 11.64736 13220 ft 381 kts 250°
2026-05-05 17:55 41.33552 11.61407 13784 ft 384 kts 250°
2026-05-05 17:55 41.32646 11.58068 14355 ft 386 kts 250°
2026-05-05 17:55 41.31731 11.54707 14926 ft 389 kts 250°
2026-05-05 17:55 41.30806 11.51318 15483 ft 392 kts 250°
2026-05-05 17:56 41.29876 11.47919 16053 ft 394 kts 250°
2026-05-05 17:56 41.28939 11.44499 16622 ft 396 kts 250°
2026-05-05 17:56 41.27992 11.41050 17193 ft 398 kts 250°
2026-05-05 17:56 41.27044 11.37599 17757 ft 400 kts 250°
2026-05-05 17:57 41.26090 11.34133 18325 ft 401 kts 249°
2026-05-05 17:57 41.25131 11.30658 18895 ft 402 kts 250°
2026-05-05 17:57 41.24171 11.27177 19467 ft 403 kts 250°
2026-05-05 17:57 41.23206 11.23686 20040 ft 403 kts 250°
2026-05-05 17:58 41.22243 11.20204 20589 ft 404 kts 250°
2026-05-05 17:58 41.21273 11.16705 21088 ft 406 kts 250°
2026-05-05 17:58 41.20298 11.13191 21585 ft 408 kts 250°
2026-05-05 17:58 41.19314 11.09649 22014 ft 411 kts 250°
2026-05-05 17:59 41.18321 11.06083 22438 ft 414 kts 250°
2026-05-05 17:59 41.17323 11.02502 22860 ft 417 kts 250°
2026-05-05 17:59 41.16316 10.98895 23287 ft 419 kts 250°
2026-05-05 17:59 41.15302 10.95270 23718 ft 421 kts 250°
2026-05-05 18:00 41.14286 10.91638 24152 ft 422 kts 250°
2026-05-05 18:00 41.13265 10.87995 24539 ft 424 kts 250°
2026-05-05 18:00 41.12238 10.84334 24926 ft 426 kts 250°
2026-05-05 18:00 41.11203 10.80654 25312 ft 427 kts 250°
2026-05-05 18:01 41.10168 10.76977 25696 ft 427 kts 250°
2026-05-05 18:01 41.09132 10.73301 26084 ft 428 kts 250°
2026-05-05 18:01 41.08090 10.69611 26472 ft 427 kts 250°
2026-05-05 18:01 41.07051 10.65934 26859 ft 427 kts 250°
2026-05-05 18:02 41.06009 10.62255 27210 ft 427 kts 250°
2026-05-05 18:02 41.04967 10.58580 27559 ft 427 kts 250°
2026-05-05 18:02 41.03923 10.54905 27885 ft 427 kts 250°
2026-05-05 18:02 41.02878 10.51231 28210 ft 427 kts 250°
2026-05-05 18:03 41.01834 10.47563 28537 ft 427 kts 250°
2026-05-05 18:03 41.00785 10.43886 28864 ft 426 kts 250°
2026-05-05 18:03 40.99817 10.40202 29190 ft 425 kts 255°
2026-05-05 18:03 40.99201 10.36386 29510 ft 424 kts 260°
2026-05-05 18:04 40.98799 10.32498 29736 ft 426 kts 262°
2026-05-05 18:04 40.98507 10.28595 29948 ft 428 kts 263°
2026-05-05 18:04 40.98266 10.24662 30160 ft 430 kts 264°
2026-05-05 18:04 40.98045 10.20713 30381 ft 432 kts 264°
2026-05-05 18:05 40.97825 10.16753 30596 ft 433 kts 264°
2026-05-05 18:05 40.97608 10.12793 30809 ft 434 kts 264°
2026-05-05 18:05 40.97395 10.08798 30904 ft 436 kts 264°
2026-05-05 18:06 40.96981 10.00805 30918 ft 435 kts 264°
2026-05-05 18:06 40.96577 9.92875 30946 ft 432 kts 264°
2026-05-05 18:07 40.96168 9.84939 30967 ft 434 kts 264°
2026-05-05 18:07 40.95756 9.76972 30963 ft 435 kts 264°
2026-05-05 18:08 40.95338 9.68998 30964 ft 435 kts 264°
2026-05-05 18:08 40.94917 9.61027 30967 ft 434 kts 264°
2026-05-05 18:09 40.94485 9.53066 30965 ft 435 kts 264°
2026-05-05 18:09 40.94044 9.45107 30970 ft 435 kts 264°
2026-05-05 18:10 40.93594 9.37132 30971 ft 436 kts 264°
2026-05-05 18:10 40.93138 9.29167 30972 ft 434 kts 263°
2026-05-05 18:11 40.92680 9.21252 30973 ft 432 kts 263°
2026-05-05 18:11 40.92216 9.13323 30976 ft 434 kts 263°
2026-05-05 18:12 40.91743 9.05360 30976 ft 435 kts 263°
2026-05-05 18:12 40.91266 8.97423 30980 ft 434 kts 263°
2026-05-05 18:13 40.90785 8.89499 30978 ft 433 kts 262°
2026-05-05 18:13 40.90298 8.81569 30975 ft 434 kts 262°
2026-05-05 18:14 40.89802 8.73604 30971 ft 436 kts 262°
2026-05-05 18:14 40.89302 8.65652 30968 ft 435 kts 262°
2026-05-05 18:15 40.88794 8.57686 30964 ft 435 kts 262°
2026-05-05 18:15 40.88283 8.49742 30965 ft 435 kts 262°
2026-05-05 18:16 40.87773 8.41790 30961 ft 436 kts 262°
2026-05-05 18:16 40.87263 8.33819 30966 ft 437 kts 262°
2026-05-05 18:17 40.86752 8.25839 30961 ft 435 kts 262°
2026-05-05 18:17 40.86213 8.17887 30962 ft 434 kts 261°
2026-05-05 18:18 40.85967 8.09893 30952 ft 440 kts 267°
2026-05-05 18:18 40.86206 8.01818 30939 ft 442 kts 269°
2026-05-05 18:19 40.86685 7.93727 30932 ft 443 kts 270°
2026-05-05 18:19 40.87229 7.85652 30923 ft 440 kts 271°
2026-05-05 18:20 40.87779 7.77594 30921 ft 442 kts 270°
2026-05-05 18:20 40.88326 7.69508 30924 ft 444 kts 270°
2026-05-05 18:21 40.88870 7.61396 30927 ft 442 kts 270°
2026-05-05 18:21 40.89406 7.53321 30924 ft 442 kts 270°
2026-05-05 18:22 40.89935 7.45250 30924 ft 442 kts 270°
2026-05-05 18:22 40.90458 7.37175 30923 ft 442 kts 270°
2026-05-05 18:23 40.90977 7.29080 30926 ft 442 kts 269°
2026-05-05 18:23 40.91490 7.21004 30923 ft 441 kts 270°
2026-05-05 18:24 40.91996 7.12946 30922 ft 441 kts 269°
2026-05-05 18:24 40.92496 7.04849 30924 ft 445 kts 269°
2026-05-05 18:25 40.92997 6.96700 30922 ft 444 kts 269°
2026-05-05 18:25 40.93489 6.88602 30924 ft 443 kts 269°
2026-05-05 18:26 40.93973 6.80514 30920 ft 443 kts 269°
2026-05-05 18:26 40.94453 6.72399 30919 ft 443 kts 269°
2026-05-05 18:27 40.94927 6.64295 30919 ft 443 kts 269°
2026-05-05 18:27 40.95395 6.56198 30917 ft 443 kts 269°
2026-05-05 18:28 40.96086 6.44057 30914 ft 442 kts 269°
2026-05-05 18:28 40.96540 6.35977 30912 ft 442 kts 269°
2026-05-05 18:29 40.96987 6.27891 30911 ft 440 kts 269°
2026-05-05 18:29 40.97420 6.19838 30909 ft 440 kts 268°
2026-05-05 18:30 40.97845 6.11781 30908 ft 440 kts 268°
2026-05-05 18:30 40.98276 6.03702 30907 ft 441 kts 269°
2026-05-05 18:31 40.98701 5.95650 30919 ft 440 kts 269°
2026-05-05 18:31 40.99118 5.87574 30921 ft 440 kts 268°
2026-05-05 18:32 40.99526 5.79529 30989 ft 439 kts 268°
2026-05-05 18:32 40.99926 5.71489 31086 ft 439 kts 269°
2026-05-05 18:33 41.00322 5.63457 31174 ft 439 kts 268°
2026-05-05 18:33 41.00518 5.59440 31331 ft 438 kts 268°
2026-05-05 18:33 41.00711 5.55431 31495 ft 437 kts 268°
2026-05-05 18:34 41.00903 5.51435 31657 ft 436 kts 268°
2026-05-05 18:34 41.01093 5.47437 31822 ft 436 kts 268°
2026-05-05 18:34 41.01283 5.43439 31987 ft 436 kts 268°
2026-05-05 18:34 41.01479 5.39440 32146 ft 436 kts 268°
2026-05-05 18:35 41.01681 5.35450 32309 ft 435 kts 269°
2026-05-05 18:35 41.01885 5.31467 32472 ft 435 kts 268°
2026-05-05 18:35 41.02091 5.27479 32635 ft 434 kts 268°
2026-05-05 18:35 41.02296 5.23496 32795 ft 435 kts 268°
2026-05-05 18:36 41.02701 5.15514 32884 ft 435 kts 268°
2026-05-05 18:36 41.03103 5.07557 32883 ft 431 kts 268°
2026-05-05 18:37 41.03495 4.99630 32884 ft 433 kts 268°
2026-05-05 18:37 41.03883 4.91701 32884 ft 432 kts 268°
2026-05-05 18:38 41.04272 4.83767 32883 ft 432 kts 268°
2026-05-05 18:38 41.04858 4.75838 32884 ft 436 kts 271°
2026-05-05 18:39 41.05638 4.67897 32881 ft 433 kts 271°
2026-05-05 18:39 41.06480 4.59988 32883 ft 435 kts 272°
2026-05-05 18:40 41.07333 4.52058 32883 ft 435 kts 272°
2026-05-05 18:40 41.08178 4.44175 32882 ft 432 kts 271°
2026-05-05 18:41 41.09014 4.36292 32882 ft 434 kts 272°
2026-05-05 18:41 41.09852 4.28380 32882 ft 433 kts 271°
2026-05-05 18:42 41.10682 4.20503 32881 ft 432 kts 271°
2026-05-05 18:42 41.11508 4.12607 32881 ft 432 kts 271°
2026-05-05 18:43 41.12328 4.04700 32885 ft 434 kts 271°
2026-05-05 18:43 41.13143 3.96825 32882 ft 431 kts 271°
2026-05-05 18:44 41.13952 3.88914 32883 ft 433 kts 271°
2026-05-05 18:44 41.14756 3.81037 32885 ft 431 kts 271°
2026-05-05 18:45 41.15550 3.73160 32886 ft 431 kts 271°
2026-05-05 18:45 41.16341 3.65314 32885 ft 431 kts 271°
2026-05-05 18:46 41.17129 3.57433 32883 ft 431 kts 271°
2026-05-05 18:46 41.17911 3.49562 32884 ft 430 kts 271°
2026-05-05 18:47 41.18699 3.41709 32884 ft 430 kts 271°
2026-05-05 18:47 41.19509 3.33873 32886 ft 429 kts 271°
2026-05-05 18:48 41.20324 3.26026 32884 ft 429 kts 271°
2026-05-05 18:48 41.21133 3.18200 32881 ft 426 kts 271°
2026-05-05 18:49 41.21935 3.10436 32886 ft 427 kts 271°
2026-05-05 18:49 41.22725 3.02619 32882 ft 426 kts 271°
2026-05-05 18:50 41.23480 2.94819 32884 ft 427 kts 271°
2026-05-05 18:50 41.24212 2.87028 32881 ft 425 kts 271°
2026-05-05 18:51 41.24911 2.79243 32882 ft 426 kts 270°
2026-05-05 18:51 41.25483 2.71424 32881 ft 425 kts 269°
2026-05-05 18:52 41.26092 2.63628 32886 ft 427 kts 270°
2026-05-05 18:52 41.26764 2.55791 32881 ft 425 kts 270°
2026-05-05 18:53 41.27454 2.47999 32881 ft 426 kts 271°
2026-05-05 18:53 41.28148 2.40187 32885 ft 424 kts 271°
2026-05-05 18:54 41.28838 2.32375 32891 ft 426 kts 270°
2026-05-05 18:54 41.29523 2.24577 32896 ft 426 kts 270°
2026-05-05 18:55 41.30203 2.16760 32893 ft 425 kts 270°
2026-05-05 18:55 41.30226 2.08982 32882 ft 418 kts 261°
2026-05-05 18:56 41.29567 2.01332 32882 ft 417 kts 258°
2026-05-05 18:56 41.28740 1.93721 32878 ft 415 kts 258°
2026-05-05 18:57 41.27874 1.86140 32867 ft 416 kts 257°
2026-05-05 18:57 41.26988 1.78525 32860 ft 417 kts 258°
2026-05-05 18:58 41.26099 1.70935 32887 ft 417 kts 258°
2026-05-05 18:58 41.25207 1.63322 32892 ft 417 kts 258°
2026-05-05 18:59 41.24312 1.55733 32896 ft 415 kts 258°
2026-05-05 18:59 41.23410 1.48155 32871 ft 417 kts 258°
2026-05-05 19:00 41.22499 1.40546 32879 ft 419 kts 258°
2026-05-05 19:00 41.21580 1.32915 32896 ft 418 kts 257°